Погода в Тухчаре

Россия / Республика Дагестан     43°13′19″N   46°24′48″E
темп.,
°C
ветер,
м/с
пор.,
м/с
влажн.,
%
обл.,
%
осадки,
мм/ч
давл.,
гПа
погр.,
м
17 апреля, сб
сб1700:00+12юв11650 0.0 101813
03:00+11юв11685 0.0 101811
06:00+12юв11665 0.0 101712
09:00+18св2251100 0.0 1016446
12:00+22зсз444453 0.0 10171143
15:00+22зсз664097 0.0 10181705
18:00+18з595497 0.0 1019283
21:00+15з5965100 0.0 1021359
18 апреля, вс
вс1800:00+13зюз3576100 0.0 1020122
03:00+11з3581100 0.0 1021124
06:00+11зюз2284100 0.0 102194
09:00+15св3359100 0.0 1018666
12:00+18св33468 0.0 1017975
15:00+20св32467 0.2 10171315
18:00+17всв3664100 0.3 1017171
21:00+13юв5867100 0.4 1017234
19 апреля, пн
пн1900:00+12юв236739 0.0 101864
03:00+12вюв1171100 0.0 101713
06:00+12вюв2372100 0.0 101777
09:00+19всв45545 0.0 1016485
12:00+21всв664696 0.0 1015926
15:00+19всв6849100 0.0 1014671
18:00+16в485822 0.0 1014230
21:00+12юв1167100 0.0 101627
20 апреля, вт
вт2000:00+11вюв237393 0.0 101548
03:00+11юв227395 0.0 101332
06:00+12в2473100 0.0 101180
09:00+21в675028 0.0 1008469
12:00+27всв883781 0.0 1004603
15:00+25в8104499 0.0 1003429
18:00+18всв586665 0.0 1004184
21:00+15сз2478100 0.1 1007139
21 апреля, ср
ср2100:00+15ююв1179100 0.1 100832
03:00+15з71384100 0.1 1012537
06:00+14з71181100 0.0 1016755
09:00+15з8107886 0.1 1018864
12:00+16з8969100 0.1 10181236
15:00+15з6874100 0.6 1019853
18:00+14з477644 0.2 1020534
21:00+12з479044 0.8 1021295